Weather History for EGJJ - October, 2011

Change the Weather History Date:

Wednesday, October 12, 2011

  Actual Average Record
Temperature  
Mean Temperature 61 °F -  
Max Temperature 64 °F 55 °F 69 °F (2001)
Min Temperature 58 °F 49 °F 46 °F (2013)
Degree Days  
Heating Degree Days 4    
Growing Degree Days 11 (Base 50)    
Moisture  
Dew Point 56 °F    
Average Humidity 85    
Maximum Humidity 94    
Minimum Humidity 77    
Precipitation  
Precipitation 0.00 in - - ()
Sea Level Pressure  
Sea Level Pressure 30.25 in    
Wind  
Wind Speed 13 mph ()    
Max Wind Speed 18 mph    
Max Gust Speed -    
Visibility 6.5 miles    
Events Rain    
Averages and records for this station are not official NWS values.
T = Trace of Precipitation, MM = Missing Value Source: Averaged Metar Reports

Daily Weather History Graph

Daily Weather History Graph

Search for Another Location

Airport or City:

Trip Planner

Search our weather history database for the weather conditions in past years. The results will help you decide how hot, cold, wet, or windy it might be!

Date:

Astronomy

Oct. 12, 2011 Rise Set
Actual Time 7:24 AM BST 6:25 PM BST
Civil Twilight 6:52 AM BST 6:57 PM BST
Nautical Twilight 6:15 AM BST 7:34 PM BST
Astronomical Twilight 5:38 AM BST 8:11 PM BST
Moon 6:10 PM BST (10/12) 7:53 AM BST (10/12)
Length of Visible Light 12h 05m
Length of Day
11h 01m
Full, 100% of the Moon is Illuminated
Oct 12
Full
Oct 20
Last Quarter
Oct 26
New
Nov 2
First Quarter
Nov 10
Full

Hourly Weather History & Observations

Time (BST) Temp. Dew Point Humidity Pressure Visibility Wind Dir Wind Speed Gust Speed Precip Events Conditions
1:00 AM 59 °F 55 °F 82% 30.27 in 31 mi West 12.7 mph - -   Mostly Cloudy
3:50 AM 59.0 °F 55.4 °F 88% 30.24 in 6.2 mi WSW 13.8 mph - N/A   Mostly Cloudy
4:00 AM 59 °F 55 °F 83% 30.25 in 28 mi West 13.8 mph - -   Mostly Cloudy
4:20 AM 59.0 °F 55.4 °F 88% 30.21 in 6.2 mi West 13.8 mph - N/A   Mostly Cloudy
4:50 AM 59.0 °F 53.6 °F 82% 30.21 in 6.2 mi West 12.7 mph - N/A   Mostly Cloudy
5:20 AM 59.0 °F 53.6 °F 82% 30.21 in 6.2 mi West 13.8 mph - N/A   Mostly Cloudy
5:50 AM 59.0 °F 53.6 °F 82% 30.21 in 6.2 mi West 12.7 mph - N/A   Mostly Cloudy
6:20 AM 59.0 °F 55.4 °F 88% 30.21 in 6.2 mi West 11.5 mph - N/A   Light Drizzle
6:50 AM 59.0 °F 53.6 °F 82% 30.21 in 6.2 mi West 15.0 mph - N/A   Mostly Cloudy
7:00 AM 58 °F 54 °F 83% 30.25 in 16 mi WNW 15.0 mph - - Rain Light Drizzle
7:20 AM 59.0 °F 53.6 °F 82% 30.21 in 6.2 mi West 18.4 mph - N/A   Mostly Cloudy
7:50 AM 59.0 °F 55.4 °F 88% 30.24 in 6.2 mi West 16.1 mph - N/A   Mostly Cloudy
8:20 AM 59.0 °F 53.6 °F 82% 30.24 in 6.2 mi West 9.2 mph - N/A   Mostly Cloudy
8:50 AM 59.0 °F 55.4 °F 88% 30.24 in 6.2 mi West 11.5 mph - N/A   Mostly Cloudy
9:20 AM 59.0 °F 55.4 °F 88% 30.24 in 6.2 mi West 15.0 mph - N/A   Mostly Cloudy
9:50 AM 59.0 °F 55.4 °F 88% 30.27 in 6.2 mi West 15.0 mph - N/A   Mostly Cloudy
10:00 AM 59 °F 56 °F 87% 30.27 in 31 mi West 16.1 mph - -   Partly Cloudy
10:20 AM 59.0 °F 55.4 °F 88% 30.27 in 6.2 mi West 15.0 mph - N/A   Mostly Cloudy
10:50 AM 60.8 °F 55.4 °F 82% 30.27 in 6.2 mi West 12.7 mph - N/A   Mostly Cloudy
11:20 AM 62.6 °F 55.4 °F 77% 30.27 in 6.2 mi West 13.8 mph - N/A   Mostly Cloudy
11:50 AM 64.4 °F 57.2 °F 77% 30.27 in 6.2 mi West 15.0 mph - N/A   Scattered Clouds
12:20 PM 62.6 °F 57.2 °F 82% 30.27 in 6.2 mi West 15.0 mph - N/A   Mostly Cloudy
12:50 PM 62.6 °F 57.2 °F 82% 30.27 in 6.2 mi West 15.0 mph - N/A   Scattered Clouds
1:00 PM 61 °F 56 °F 77% 30.28 in 31 mi West 15.0 mph - -   Partly Cloudy
1:20 PM 62.6 °F 55.4 °F 77% 30.24 in 6.2 mi West 12.7 mph - N/A   Mostly Cloudy
1:50 PM 62.6 °F 57.2 °F 82% 30.27 in 6.2 mi West 11.5 mph - N/A   Mostly Cloudy
2:20 PM 62.6 °F 57.2 °F 82% 30.24 in 6.2 mi West 13.8 mph - N/A   Mostly Cloudy
2:50 PM 62.6 °F 57.2 °F 82% 30.24 in 6.2 mi West 18.4 mph - N/A   Mostly Cloudy
3:20 PM 62.6 °F 57.2 °F 82% 30.24 in 6.2 mi West 13.8 mph - N/A   Mostly Cloudy
3:50 PM 60.8 °F 57.2 °F 88% 30.27 in 6.2 mi West 12.7 mph - N/A   Mostly Cloudy
4:00 PM 61 °F 57 °F 82% 30.27 in 22 mi West 15.0 mph - -   Mostly Cloudy
4:20 PM 60.8 °F 57.2 °F 88% 30.24 in 6.2 mi West 11.5 mph - N/A   Mostly Cloudy
4:50 PM 60.8 °F 57.2 °F 88% 30.24 in 6.2 mi West 15.0 mph - N/A   Mostly Cloudy
5:20 PM 60.8 °F 57.2 °F 88% 30.27 in 6.2 mi WNW 11.5 mph - N/A   Mostly Cloudy
5:50 PM 60.8 °F 57.2 °F 88% 30.27 in 6.2 mi West 15.0 mph - N/A   Mostly Cloudy
6:20 PM 59.0 °F 57.2 °F 94% 30.27 in 6.2 mi WNW 15.0 mph - N/A   Mostly Cloudy
6:50 PM 60.8 °F 57.2 °F 88% 30.27 in 6.2 mi West 15.0 mph - N/A   Mostly Cloudy
7:00 PM 60 °F 57 °F 86% 30.29 in 37 mi West 15.0 mph - -   Mostly Cloudy
7:20 PM 59.0 °F 57.2 °F 94% 30.27 in 6.2 mi WNW 15.0 mph - N/A   Mostly Cloudy
7:50 PM 60.8 °F 57.2 °F 88% 30.27 in 6.2 mi WNW 12.7 mph - N/A   Mostly Cloudy
8:20 PM 59.0 °F 57.2 °F 94% 30.27 in 6.2 mi WNW 12.7 mph - N/A   Mostly Cloudy
8:50 PM 60.8 °F 57.2 °F 88% 30.27 in 6.2 mi WNW 11.5 mph - N/A   Mostly Cloudy
9:20 PM 59.0 °F 57.2 °F 94% 30.27 in 6.2 mi West 15.0 mph - N/A   Mostly Cloudy
9:50 PM 59.0 °F 57.2 °F 94% 30.30 in 6.2 mi WNW 10.4 mph - N/A   Mostly Cloudy